Location: Berg
(47.2344°N, 9.5296°E)
Time: 09:53:24
(UTC+00:00)

XW-2F - Visible Passes

Search period start: 01 December 2021 00:00
Search period end: 11 December 2021 00:00
Orbit: 497 x 515 km, 97.5° (Epoch: 30 November)

Date Brightness Start Highest point End Pass type
(mag) Time Alt. Az. Time Alt. Az. Time Alt. Az.
01 Dec ? 04:52:24 10° NE 04:55:25 22° E 04:58:25 10° SSE visible
01 Dec ? 17:07:25 10° S 17:10:56 41° W 17:14:31 10° NNW visible
02 Dec ? 04:35:21 10° NE 04:37:31 15° E 04:39:40 10° SE visible
02 Dec ? 06:08:00 10° N 06:11:39 47° WNW 06:15:16 10° SW visible
02 Dec ? 16:49:27 10° S 16:53:08 69° WSW 16:56:53 10° NNW visible
03 Dec ? 05:50:09 10° N 05:53:56 78° WNW 05:57:41 10° SSW visible
03 Dec ? 16:31:41 10° SSE 16:35:23 73° ENE 16:39:08 10° N visible
04 Dec ? 05:32:24 10° NNE 05:36:10 65° ESE 05:39:54 10° S visible
04 Dec ? 16:14:07 10° SE 16:17:39 44° ENE 16:21:15 10° N visible
04 Dec ? 17:49:32 10° SW 17:51:46 15° W 17:54:01 10° NW visible
05 Dec ? 05:14:46 10° NNE 05:18:22 39° E 05:21:53 10° SSE visible
05 Dec ? 17:30:49 10° SSW 17:33:50 23° W 17:36:54 10° NW visible
06 Dec ? 04:57:18 10° NE 05:00:29 25° E 05:03:38 10° SSE visible
06 Dec ? 17:12:30 10° SSW 17:15:57 36° W 17:19:28 10° NNW visible
07 Dec ? 04:40:06 10° NE 04:42:33 16° E 04:45:00 10° SE visible
07 Dec ? 06:13:03 10° N 06:16:38 42° WNW 06:20:11 10° SW visible
07 Dec ? 16:54:27 10° S 16:58:07 60° W 17:01:51 10° NNW visible
08 Dec ? 04:23:51 10° ENE 04:24:35 10° E 04:25:18 10° E visible
08 Dec ? 05:55:08 10° N 05:58:54 68° WNW 06:02:37 10° SSW visible
08 Dec ? 16:36:36 10° SSE 16:40:19 83° ENE 16:44:06 10° NNW visible
09 Dec ? 05:37:20 10° NNE 05:41:07 74° ESE 05:44:51 10° S visible
09 Dec ? 16:18:56 10° SSE 16:22:33 50° ENE 16:26:13 10° N visible
09 Dec ? 17:54:48 10° WSW 17:56:43 14° W 17:58:40 10° WNW visible
10 Dec ? 05:19:37 10° NNE 05:23:16 45° E 05:26:53 10° S visible
10 Dec ? 16:01:29 10° SE 16:04:50 32° ENE 16:08:13 10° N visible
10 Dec ? 17:35:53 10° SW 17:38:45 21° W 17:41:40 10° NW visible
